This is the latest recevied weather packets stored in our database for station/object KG5VSR. If no packets are shown the sender has not sent any weather packets the latest 10 day(s).
| Time | Temp. | Humidity | Pressure | Rain* | Wind** | Luminosity | Snow |
|---|---|---|---|---|---|---|---|
| 1777850273 | 26.67° C | 40% | 1016.2 hPa | 0 mm | - | 156 W/m² | - |
| 1777848469 | 27.22° C | 38% | 1016.3 hPa | 0 mm | - | 68 W/m² | - |
| 1777846665 | 27.78° C | 36% | 1016.8 hPa | 0 mm | - | 401 W/m² | - |
| 1777844860 | 27.78° C | 37% | 1016.7 hPa | 0 mm | - | 482 W/m² | - |
| 1777843055 | 28.33° C | 38% | 1017.4 hPa | 0 mm | - | 631 W/m² | - |
| 1777841255 | 28.33° C | 38% | 1018 hPa | 0 mm | - | 642 W/m² | - |
| 1777839452 | 29.44° C | 34% | 1018.5 hPa | 0 mm | - | 688 W/m² | - |
| 1777837651 | 28.89° C | 35% | 1018.8 hPa | 0 mm | - | 741 W/m² | - |
| 1777835851 | 28.89° C | 36% | 1019.7 hPa | 0 mm | - | 737 W/m² | - |
| 1777834047 | 27.78° C | 39% | 1019.8 hPa | 0 mm | - | 736 W/m² | - |
| 1777832241 | 28.33° C | 40% | 1020.2 hPa | 0 mm | - | 775 W/m² | - |
| 1777830440 | 27.22° C | 43% | 1021 hPa | 0 mm | - | 789 W/m² | - |
| 1777828637 | 26.67° C | 45% | 1021.5 hPa | 0 mm | - | 802 W/m² | - |
| 1777826835 | 25.56° C | 48% | 1021.8 hPa | 0 mm | - | 823 W/m² | - |
| 1777825030 | 25.56° C | 49% | 1022.1 hPa | 0 mm | - | 831 W/m² | - |
| 1777823227 | 24.44° C | 51% | 1022.2 hPa | 0 mm | - | 762 W/m² | - |
| 1777821424 | 23.33° C | 53% | 1022 hPa | 0 mm | - | 632 W/m² | - |
| 1777819622 | 22.22° C | 56% | 1022 hPa | 0 mm | - | 523 W/m² | - |
| 1777817821 | 21.67° C | 62% | 1022.1 hPa | 0 mm | - | 421 W/m² | - |
| 1777816021 | 20° C | 65% | 1022.1 hPa | 0 mm | - | 271 W/m² | - |
| 1777814220 | 18.33° C | 72% | 1021.8 hPa | 0 mm | - | 143 W/m² | - |
| 1777812420 | 15° C | 84% | 1021.6 hPa | 0 mm | - | 63 W/m² | - |
| 1777810616 | 11.67° C | 93% | 1021.4 hPa | 0 mm | - | 20 W/m² | - |
| 1777808811 | 11.67° C | 92% | 1021.1 hPa | 0 mm | - | 4 W/m² | - |
| 1777807006 | 11.67° C | 90% | 1020.9 hPa | 0 mm | - | 0 W/m² | - |
* Rain latest hour (hover to see other rain measurements)
** Current wind speed in m/s (hover to see current wind gust speed)